Wind_Speed
11 15 6 23 10 21 29 34 41 43 44 39 27 11 12 8 18 10 5 13 14 17 16 16 15 17 17 21 19 18 14 11 16 18 18 15 13 10 9 9 12 14 18 19 15 14 18 19 21
10 9 23 24 21 21 25 33 42 45 47 43 32 16 7 19 14 19 12 18 25 27 22 23 20 21 23 24 14 15 14 13 21 22 16 13 9 8 11 12 18 19 21 22 20 12 16 19 20
11 16 22 23 22 21 25 33 40 47 50 48 43 29 19 14 13 19 22 23 26 25 22 24 20 23 23 18 15 16 16 21 21 22 16 11 9 9 12 13 19 18 19 20 19 21 14 18 20
14 21 14 19 24 30 32 34 37 45 52 52 45 42 32 28 28 26 24 24 25 28 24 24 24 22 19 15 16 15 21 21 24 21 14 13 10 9 18 18 19 20 20 24 23 16 15 14 20
17 19 17 24 25 27 30 31 34 42 48 52 49 42 37 32 28 27 24 23 26 29 25 25 22 19 18 17 14 20 21 24 24 16 12 8 7 8 11 13 17 18 23 26 22 17 15 16 19
17 17 21 21 22 25 26 30 34 38 43 48 51 45 41 37 33 28 24 26 28 28 25 24 21 18 17 18 20 21 23 24 18 13 9 7 6 8 8 11 16 17 21 25 30 25 17 15 20
23 19 17 17 19 23 26 30 33 37 41 44 47 47 42 40 38 35 31 28 27 27 25 25 23 23 23 20 19 22 24 20 16 13 11 11 10 9 11 14 16 18 19 22 31 32 19 11 19
7 18 12 11 14 22 27 30 33 35 38 37 40 42 41 39 38 38 37 34 32 31 31 30 28 25 22 22 21 22 19 15 12 11 11 13 11 11 14 12 12 14 17 22 29 34 28 21 24
17 9 8 6 12 17 21 26 29 32 33 36 34 36 38 37 35 37 36 33 32 31 29 27 26 25 24 24 24 22 18 15 13 12 10 9 8 13 16 15 12 14 15 21 25 30 22 33 32
9 9 6 9 11 13 19 22 25 28 28 28 32 31 30 31 31 29 32 32 31 32 31 30 27 26 23 20 18 16 15 12 10 9 7 5 5 11 16 13 13 15 16 16 21 29 27 19 29
8 5 8 7 8 9 15 20 22 23 26 26 25 26 26 23 24 23 24 27 26 24 24 23 23 19 16 14 12 11 8 5 4 4 4 5 5 6 9 8 12 10 13 15 21 21 20 19 15
6 7 5 7 8 10 13 15 19 19 22 22 23 21 20 21 17 16 15 17 18 19 17 14 12 11 13 12 10 7 5 3 2 4 4 3 5 8 7 8 11 12 14 14 14 15 15 21 22
1 5 6 8 11 13 14 15 16 17 18 20 18 19 17 13 14 13 9 7 5 8 8 8 5 3 2 7 10 9 6 7 5 5 7 6 7 7 6 7 8 7 10 11 10 9 11 11 18
6 8 11 13 14 14 16 17 17 14 15 16 18 14 15 12 9 8 8 8 6 5 5 2 2 3 2 3 5 6 9 6 5 5 6 7 8 6 6 8 8 6 3 2 7 6 8 7 7
10 9 9 7 9 15 14 13 14 10 15 17 15 15 12 13 9 8 6 3 4 7 5 8 10 8 7 7 5 4 1 2 4 3 2 2 3 6 6 5 6 7 6 4 2 2 3 2 1
4 6 5 4 13 14 14 14 11 18 19 20 18 16 14 13 13 12 8 8 6 9 8 11 11 10 10 11 10 10 9 7 6 4 7 9 8 5 5 6 6 9 4 1 2 4 7 9 7
7 7 11 11 14 13 13 11 12 10 24 20 18 19 17 17 15 15 16 14 15 15 14 13 14 17 17 15 16 15 14 14 16 15 14 14 13 13 14 13 11 9 12 7 8 5 6 15 16
15 13 14 14 14 13 20 14 14 16 20 33 27 26 25 21 20 19 21 22 21 22 24 25 23 23 21 20 21 21 21 21 19 20 20 15 14 18 22 19 17 17 19 12 12 14 10 14 17
17 19 16 18 21 24 23 22 21 18 11 18 31 29 27 27 26 27 24 25 24 23 23 22 25 27 26 26 26 24 24 24 23 24 21 19 21 20 20 19 19 18 22 21 16 16 17 19 19
22 22 18 21 23 26 28 25 23 25 21 32 34 34 29 32 34 31 29 26 28 28 25 24 25 28 30 30 29 26 27 27 26 27 29 28 27 22 24 26 23 24 27 19 18 22 21 19 22
28 25 23 25 24 25 24 24 25 28 26 24 36 30 31 40 41 46 40 36 32 35 34 35 37 36 34 32 33 33 31 33 34 32 39 39 38 28 26 26 27 22 34 32 25 23 24 21 25
28 25 26 27 28 29 29 28 28 23 29 38 46 44 47 45 41 24 54 46 42 40 42 45 48 49 44 43 40 39 36 34 35 36 40 42 43 34 27 29 31 34 35 36 35 31 27 25 25
30 29 30 31 32 33 32 34 32 37 45 49 48 47 46 44 39 34 36 40 40 42 38 40 46 53 52 50 45 40 41 40 39 39 41 40 34 38 38 36 37 43 40 39 39 39 36 30 28
31 31 32 29 31 36 37 37 39 42 45 44 42 39 38 37 38 36 34 33 23 43 43 44 50 46 45 47 47 49 47 48 46 43 45 50 41 45 50 51 50 49 45 41 41 41 32 31 28
33 34 35 37 38 39 40 41 40 39 39 37 37 37 36 35 36 38 34 33 34 44 45 32 42 48 48 45 40 50 52 49 41 44 45 46 49 45 40 44 46 41 40 43 42 41 39 36 35
36 37 38 38 39 40 39 37 33 34 35 35 32 33 36 39 37 39 38 32 35 35 33 49 44 41 46 47 38 40 65 41 51 43 43 49 55 49 46 46 49 52 47 45 48 44 45 44 43
39 38 39 38 35 33 34 33 31 33 30 31 32 35 37 36 43 40 42 37 34 48 45 50 45 44 43 46 47 53 61 55 45 46 54 51 54 60 52 51 52 50 49 49 56 52 51 47 45
39 39 37 34 33 33 33 33 29 31 32 34 35 38 42 43 42 47 47 46 46 44 47 45 48 47 48 48 50 53 60 59 60 56 65 70 53 54 58 62 58 60 57 50 51 54 51 47 48
35 33 31 31 32 32 32 33 29 34 37 40 41 43 47 49 47 48 51 52 55 55 54 52 50 52 49 47 51 55 64 71 67 59 54 55 65 61 62 67 64 61 64 64 60 61 54 52 55
33 31 31 31 32 31 33 35 34 35 37 40 44 43 43 48 50 50 53 54 56 60 61 61 60 57 54 56 47 53 62 66 75 77 69 69 63 62 63 64 66 68 64 63 61 65 65 61 62
Wind_Direction
109 64 43 77 85 355 354 357 11 22 25 28 20 30 312 153 116 237 203 162 144 132 136 144 150 158 161 148 158 164 155 130 140 129 133 143 138 127 41 35 22 31 29 19 19 25 38 37 36
97 53 35 42 32 7 2 8 18 26 31 38 33 43 115 152 159 164 165 145 133 119 121 126 129 139 143 153 147 158 155 140 140 132 135 126 124 93 52 44 52 43 30 25 35 45 41 42 43
96 65 40 31 30 22 16 19 26 31 36 41 45 51 79 141 130 130 144 140 135 120 120 132 131 131 136 144 145 147 141 141 136 140 132 120 123 83 34 48 42 35 23 21 32 38 42 44 45
108 76 48 38 49 41 32 28 32 36 38 43 48 54 72 94 109 120 129 136 136 129 135 132 130 130 124 130 133 132 135 136 138 140 131 111 108 66 53 59 43 26 19 17 22 33 46 50 52
97 78 60 50 43 39 38 37 40 42 41 44 49 57 65 76 88 101 107 120 126 128 134 130 127 121 122 127 123 129 136 138 134 131 125 108 93 67 51 45 24 18 25 25 35 46 74 70 61
84 65 47 42 44 41 41 42 46 46 45 45 48 55 61 69 75 87 96 106 118 119 122 113 109 106 106 114 126 135 137 132 126 116 97 89 76 65 42 23 15 13 27 34 46 51 70 70 62
83 84 51 24 36 39 42 43 46 47 46 49 52 52 62 68 77 82 91 105 108 107 106 102 106 106 111 115 125 135 138 123 112 115 109 78 71 62 32 31 26 20 35 43 43 42 51 73 74
96 160 67 18 28 39 38 42 41 46 48 49 53 54 59 68 75 85 91 95 98 98 101 103 107 109 113 117 121 123 125 128 117 103 73 71 79 50 24 13 8 16 42 45 48 49 59 96 98
111 78 69 23 33 32 27 29 35 40 46 50 51 56 59 66 76 84 90 96 99 102 104 109 108 110 112 113 116 120 122 115 101 89 81 82 80 43 32 27 33 36 46 48 55 56 78 82 65
71 70 63 42 27 14 15 19 27 32 37 46 54 55 60 67 77 85 95 97 98 102 99 105 103 109 113 109 110 109 108 100 88 79 63 54 40 35 39 45 39 34 48 49 57 59 66 88 72
352 20 30 22 13 4 2 10 14 23 27 31 40 55 58 66 70 82 93 100 103 108 103 105 94 99 94 81 85 77 89 91 73 9 32 23 353 12 28 28 23 40 46 56 60 62 69 98 72
324 339 334 340 337 337 339 349 2 8 20 21 21 30 54 59 65 75 84 96 99 107 107 101 89 79 91 96 84 58 30 3 22 28 14 355 339 352 19 35 41 51 45 53 62 62 57 49 90
38 306 328 322 307 304 318 330 340 345 0 12 17 9 22 48 67 55 58 81 78 104 104 116 122 80 63 111 86 76 43 26 33 41 44 40 32 32 35 21 16 35 53 61 66 66 68 71 83
266 310 309 322 316 316 297 305 312 324 337 350 357 6 360 10 30 58 53 21 9 355 334 251 224 272 169 181 131 89 63 57 53 42 37 32 30 23 13 10 15 7 20 56 61 72 81 94 91
292 276 289 295 313 329 328 300 345 316 311 320 333 342 342 340 352 351 11 6 332 332 328 329 308 283 258 271 245 227 334 29 40 319 278 328 28 27 19 6 333 321 317 303 327 87 208 80 111
311 303 351 330 336 328 316 336 317 305 296 305 314 322 322 321 314 322 318 311 298 268 295 310 305 298 285 272 263 284 278 297 308 312 299 300 303 284 284 285 298 305 295 257 306 266 214 193 217
313 286 350 336 297 332 296 309 295 298 309 295 311 312 306 307 291 293 294 296 296 289 282 283 288 287 284 281 270 271 269 284 294 297 297 307 298 278 280 268 272 291 313 271 251 243 242 223 224
273 293 307 306 291 283 305 313 289 282 274 317 317 305 300 291 286 285 289 280 284 288 284 285 287 286 286 282 276 271 273 265 272 280 287 286 298 307 289 279 279 299 281 273 254 271 242 248 254
288 289 279 278 287 294 300 296 292 289 315 294 298 303 303 296 289 287 288 287 272 283 280 278 279 282 283 280 277 278 274 269 271 274 272 274 282 286 295 303 307 293 292 284 269 258 256 265 260
286 296 292 278 274 282 280 288 286 291 281 271 300 300 297 302 296 291 279 283 272 270 270 272 281 281 279 281 278 273 276 279 275 272 267 268 267 285 298 305 322 306 283 286 260 268 259 264 261
281 290 276 289 294 292 284 289 293 281 275 287 300 289 296 302 303 307 292 283 274 265 264 270 274 278 272 273 274 272 270 274 276 277 277 270 264 266 286 293 297 273 288 283 285 278 261 272 267
284 286 286 292 292 290 287 290 300 256 240 288 294 292 289 292 292 270 287 285 284 278 268 271 275 277 272 268 269 268 268 272 272 279 282 277 273 262 275 279 280 276 286 287 278 279 264 266 253
284 287 289 291 287 285 285 284 286 273 276 284 288 291 291 291 286 283 283 289 293 286 279 270 278 276 277 273 267 264 264 262 264 266 270 279 281 266 270 273 273 282 292 275 271 268 267 261 253
285 287 288 290 291 291 290 288 286 285 286 289 291 294 295 295 294 293 290 293 290 289 288 277 276 278 277 276 274 269 264 262 269 266 265 264 275 276 278 278 283 280 283 279 277 271 271 266 258
287 289 293 294 291 288 291 291 290 293 295 295 294 291 290 295 297 299 290 295 293 293 288 255 287 286 281 276 282 291 276 270 258 271 269 258 269 274 274 284 278 267 283 283 277 269 265 255 259
287 290 292 292 295 297 299 298 296 294 292 293 295 300 306 307 306 305 304 307 302 283 289 290 286 287 284 275 258 246 257 263 268 270 268 258 258 264 267 269 257 261 271 277 281 267 267 262 257
291 293 294 296 294 292 290 286 287 288 289 297 302 306 304 304 305 305 305 307 299 290 300 288 287 287 282 273 262 240 240 254 244 248 256 254 253 265 263 263 267 269 271 275 280 273 262 260 255
291 291 292 289 285 283 285 289 296 298 301 303 304 307 307 308 307 306 305 304 301 296 290 289 290 287 285 277 263 249 241 238 247 251 251 256 254 258 257 258 260 266 270 269 271 272 262 258 260
286 282 278 279 282 287 290 295 301 307 306 306 306 312 311 307 307 305 304 306 306 306 305 301 297 294 290 277 270 257 242 241 241 228 241 255 250 253 254 256 251 252 266 266 265 266 259 265 263
275 271 274 279 285 287 291 297 302 301 302 302 301 300 303 305 309 308 308 310 312 309 306 302 300 299 294 287 277 263 252 245 238 240 246 250 246 247 254 252 255 259 263 259 259 261 263 263 263
Height
11015 11021 11011 11010 11022 11022 11012 11004 10989 10974 10963 10950 10936 10917 10932 10935 10943 10947 10949 10951 10954 10957 10960 10965 10969 10973 10976 10981 10984 10987 10990 10991 10993 10995 10996 10999 11001 11002 11003 11002 11001 11001 11002 11001 10999 10996 10991 10987 10983
11020 11020 11014 11004 11008 11016 11014 11006 10991 10978 10967 10953 10942 10934 10935 10937 10940 10944 10950 10954 10956 10959 10964 10968 10973 10976 10979 10982 10985 10989 10990 10992 10994 10996 10999 11002 11004 11005 11005 11005 11005 11005 11003 11001 10998 10995 10990 10987 10984
11024 11028 11025 11022 11021 11019 11018 11009 10996 10984 10971 10960 10951 10944 10941 10944 10944 10947 10953 10955 10958 10961 10966 10971 10976 10980 10982 10985 10988 10990 10992 10994 10996 11000 11002 11004 11006 11007 11007 11008 11007 11005 11003 11000 10997 10994 10990 10989 10987
11028 11029 11009 11034 11025 11022 11020 11012 11002 10990 10978 10968 10961 10954 10949 10949 10950 10953 10956 10958 10960 10964 10970 10976 10980 10983 10986 10988 10990 10992 10994 10996 11000 11003 11005 11007 11009 11011 11011 11010 11009 11006 11002 10999 10997 10994 10991 10990 10988
11034 11038 11036 11031 11028 11026 11023 11017 11008 10997 10988 10978 10970 10964 10960 10958 10958 10959 10961 10963 10966 10970 10976 10980 10983 10986 10988 10991 10993 10995 10997 11000 11003 11006 11008 11010 11011 11013 11013 11012 11009 11006 11004 11001 10997 10993 10991 10990 10989
11036 11039 11040 11036 11032 11030 11027 11021 11013 11004 10996 10987 10980 10974 10971 10966 10965 10967 10969 10971 10975 10978 10982 10984 10987 10990 10992 10995 10997 11000 11002 11005 11008 11010 11011 11012 11014 11015 11014 11013 11010 11007 11006 11004 10999 10996 10996 10995 10994
11030 11023 11033 11044 11037 11034 11030 11024 11018 11011 11004 10998 10991 10987 10983 10979 10975 10974 10976 10981 10984 10986 10988 10990 10991 10994 10997 10999 11002 11004 11007 11009 11011 11012 11013 11014 11015 11016 11016 11013 11010 11008 11009 11008 11004 11002 10998 10995 10995
11032 11004 11030 11046 11042 11037 11033 11029 11023 11017 11012 11007 11003 10999 10995 10990 10988 10986 10987 10990 10993 10994 10995 10997 10998 11000 11003 11004 11007 11009 11011 11012 11013 11014 11015 11016 11018 11018 11016 11013 11011 11010 11012 11012 11009 11004 10998 10995 10994
11034 11038 11040 11047 11043 11039 11037 11032 11028 11024 11020 11015 11012 11010 11006 11002 11000 10998 10998 10999 10999 11000 11002 11004 11004 11006 11008 11010 11011 11013 11014 11015 11015 11016 11017 11019 11020 11020 11018 11014 11013 11013 11015 11016 11012 11009 11003 11002 11004
11048 11048 11047 11044 11042 11041 11039 11036 11033 11030 11027 11023 11020 11017 11016 11013 11011 11009 11007 11009 11009 11009 11010 11010 11011 11012 11014 11015 11016 11017 11017 11017 11017 11018 11019 11020 11021 11022 11020 11017 11014 11015 11017 11019 11016 11011 11001 10999 11004
11048 11048 11044 11041 11042 11043 11041 11039 11037 11035 11032 11030 11027 11024 11022 11022 11021 11019 11017 11015 11015 11016 11017 11016 11016 11016 11017 11019 11019 11019 11019 11019 11019 11020 11021 11021 11022 11024 11023 11019 11017 11018 11021 11022 11021 11013 11002 10995 10978
11049 11044 11042 11041 11041 11042 11043 11042 11040 11039 11037 11034 11032 11031 11029 11027 11027 11026 11025 11023 11022 11020 11021 11022 11023 11022 11021 11020 11021 11021 11021 11020 11019 11020 11021 11021 11022 11023 11024 11021 11020 11020 11022 11024 11024 11019 11010 11002 10994
11047 11047 11044 11042 11043 11043 11043 11041 11040 11040 11039 11037 11036 11034 11033 11031 11029 11029 11029 11028 11027 11025 11024 11024 11024 11025 11025 11024 11023 11022 11022 11021 11021 11020 11021 11021 11023 11024 11025 11024 11021 11020 11021 11023 11024 11022 11019 11011 11011
11048 11046 11044 11043 11044 11044 11043 11041 11040 11039 11039 11038 11037 11037 11035 11034 11032 11031 11029 11029 11028 11028 11027 11026 11025 11024 11024 11023 11023 11022 11022 11021 11021 11021 11021 11021 11023 11025 11026 11024 11021 11018 11018 11020 11022 11021 11021 11024 11023
11050 11044 11041 11040 11044 11045 11042 11042 11040 11037 11038 11038 11037 11037 11036 11035 11034 11033 11031 11029 11028 11028 11027 11027 11027 11026 11025 11024 11023 11022 11021 11021 11020 11020 11020 11019 11021 11023 11024 11022 11020 11016 11014 11014 11017 11017 11017 11018 11021
11048 11045 11042 11040 11042 11045 11043 11042 11042 11034 11034 11037 11037 11036 11036 11036 11035 11034 11032 11029 11028 11026 11026 11026 11025 11025 11024 11023 11022 11022 11021 11020 11020 11019 11019 11019 11020 11019 11018 11018 11016 11015 11013 11012 11011 11013 11013 11013 11012
11045 11041 11047 11041 11041 11041 11043 11042 11041 11030 11028 11033 11035 11034 11034 11034 11033 11033 11031 11028 11027 11026 11024 11024 11023 11023 11022 11021 11021 11020 11019 11019 11019 11018 11018 11018 11017 11015 11014 11012 11012 11013 11015 11012 11011 11009 11006 11006 11006
11043 11041 11041 11042 11041 11040 11039 11040 11043 11041 11034 11031 11031 11032 11030 11030 11030 11029 11028 11026 11024 11023 11021 11020 11020 11019 11019 11018 11017 11016 11016 11016 11015 11015 11015 11016 11014 11011 11010 11009 11009 11012 11009 11010 11010 11008 11005 11003 11001
11042 11038 11040 11041 11039 11036 11034 11036 11037 11041 11046 11006 11029 11025 11025 11025 11025 11024 11023 11021 11019 11018 11017 11015 11015 11014 11013 11013 11012 11011 11010 11011 11011 11010 11010 11011 11009 11007 11006 11006 11009 11009 11006 11003 11004 11004 11003 10998 10997
11038 11036 11035 11035 11036 11035 11034 11031 11032 11032 11032 11030 11024 11021 11018 11018 11019 11019 11017 11015 11013 11012 11011 11010 11009 11009 11008 11007 11007 11006 11006 11005 11004 11003 11004 11004 11002 11000 11000 11001 11007 11005 10999 10994 10997 10997 10997 10993 10990
11033 11032 11031 11030 11030 11029 11027 11028 11027 11024 11019 11019 11019 11015 11013 11012 11014 11016 11011 11008 11007 11006 11006 11004 11003 11003 11001 10999 10999 10999 10998 10997 10996 10996 10996 10996 10995 10995 10994 10995 10992 10973 10992 10991 10991 10991 10991 10988 10984
11028 11027 11026 11025 11026 11024 11023 11022 11023 11017 11015 11011 11012 11007 11007 11009 11009 11006 11005 10997 10998 11000 10996 10992 10992 10993 10993 10990 10988 10988 10988 10987 10986 10988 10988 10985 10987 10987 10985 10985 10986 10986 10986 10985 10981 10980 10979 10980 10977
11022 11022 11021 11020 11019 11017 11016 11014 11016 11013 11010 11006 11004 10999 10996 10994 10999 11001 10994 10990 10991 10986 10985 10969 10969 10976 10980 10979 10977 10977 10976 10975 10976 10976 10977 10978 10981 10979 10976 10974 10974 10973 10976 10974 10973 10972 10970 10968 10967
11017 11015 11014 11014 11012 11011 11007 11007 11004 11002 10999 10996 10992 10990 10986 10984 10981 10981 10983 10985 10970 10967 10972 10969 10960 10962 10965 10968 10969 10966 10966 10965 10967 10965 10966 10964 10968 10967 10966 10963 10960 10958 10959 10958 10959 10959 10959 10957 10957
11011 11009 11007 11005 11004 11002 10998 10995 10996 10992 10988 10986 10983 10981 10977 10975 10972 10968 10976 10978 10982 10971 10965 10958 10952 10947 10950 10957 10965 10963 10953 10950 10953 10952 10952 10951 10952 10952 10953 10952 10948 10947 10948 10948 10948 10947 10947 10948 10948
11004 11002 11000 10998 10993 10990 10987 10984 10985 10983 10980 10976 10975 10971 10967 10963 10963 10960 10962 10970 10962 10945 10936 10942 10942 10938 10938 10943 10954 10945 10937 10939 10941 10939 10936 10935 10937 10938 10940 10937 10935 10935 10938 10938 10939 10937 10937 10938 10939
10994 10992 10991 10988 10985 10982 10980 10979 10981 10975 10973 10969 10966 10962 10959 10957 10950 10950 10950 10955 10953 10940 10933 10938 10931 10928 10927 10926 10927 10923 10918 10925 10928 10925 10918 10917 10920 10922 10926 10924 10921 10921 10925 10926 10926 10925 10927 10927 10928
10986 10984 10982 10981 10979 10976 10973 10970 10970 10966 10963 10959 10956 10953 10948 10945 10943 10936 10935 10936 10937 10940 10935 10928 10917 10913 10910 10907 10905 10905 10903 10906 10905 10903 10902 10898 10902 10904 10906 10907 10908 10905 10906 10910 10911 10911 10911 10912 10914
10978 10976 10974 10973 10971 10969 10965 10962 10963 10956 10952 10949 10946 10943 10936 10933 10932 10926 10921 10918 10913 10907 10902 10899 10898 10892 10889 10884 10883 10885 10885 10886 10883 10877 10874 10876 10883 10887 10886 10888 10888 10888 10889 10890 10892 10895 10896 10897 10897
10971 10969 10968 10966 10963 10961 10958 10954 10954 10950 10946 10942 10939 10937 10933 10923 10918 10914 10908 10903 10898 10890 10885 10879 10874 10871 10868 10862 10860 10860 10861 10861 10863 10862 10860 10859 10863 10870 10871 10870 10872 10871 10871 10872 10875 10877 10880 10881 10883